Location: Montreal
(45.5000°N, 73.5833°W)
Time: 22:39:34
(UTC-04:00)

N. Korean satellite - Pass Details

Date: 12 October 2017
Orbit: 459 x 517 km, 97.2° (Epoch: 21 October)

Event Time Altitude Azimuth Distance (km) Brightness Sun altitude
Rises 18:36:43 0° 157° (SSE) 2,554 10.1 -4.8°
Reaches altitude 10° 18:38:49 10° 153° (SSE) 1,668 9.1 -5.2°
Maximum altitude 18:42:20 58° 75° (ENE) 569 6.6 -5.8°
Drops below altitude 10° 18:45:49 10° 356° (N) 1,651 9.3 -6.4°
Sets 18:47:53 0° 352° (N) 2,525 10.3 -6.8°
